DW9425 Weather Reports


time (UTC)temp
C
wind
direction
speed
KPH
gust
KPH
rain 1hr
cm
rain 24hr
cm
rain mn
cm
humidity
%
barometer
mb
20260508014553 18 232 11.3 33.8 0.00 0.00 0.00 9 1015.2
20260508013051 20 249 11.3 27.4 0.00 0.00 0.00 9 1015.1
20260508011605 20 208 12.9 25.7 0.00 0.00 0.00 9 1015.1
20260508010049 20 219 12.9 27.4 0.00 0.00 0.00 9 1015.1
20260508004555 20 219 14.5 24.1 0.00 0.00 0.00 10 1015.1
20260508003047 21 220 12.9 29.0 0.00 0.00 0.00 10 1015.1
20260508001547 22 224 19.3 24.1 0.00 0.00 0.00 9 1015.3
20260508000045 22 181 6.4 22.5 0.00 0.00 0.00 10 1015.3
20260507234552 22 232 11.3 24.1 0.00 0.00 0.00 9 1015.4
20260507231547 22 263 9.7 22.5 0.00 0.00 0.00 10 1015.6
20260507230039 23 223 3.2 17.7 0.00 0.00 0.00 11 1015.7
20260507224536 22 139 1.6 12.9 0.00 0.00 0.00 13 1015.9
20260507221533 22 275 8.0 22.5 0.00 0.00 0.00 15 1016.1
20260507220031 22 244 8.0 24.1 0.00 0.00 0.00 16 1016.3
20260507214528 22 253 12.9 24.1 0.00 0.00 0.00 18 1016.4
20260507213127 22 228 11.3 22.5 0.00 0.00 0.00 18 1016.5
20260507211522 21 229 12.9 32.2 0.00 0.00 0.00 19 1016.8
20260507210026 21 191 9.7 19.3 0.00 0.00 0.00 18 1017.1
20260507204517 21 309 8.0 19.3 0.00 0.00 0.00 14 1017.3
20260507203116 21 320 4.8 16.1 0.00 0.00 0.00 11 1017.5
20260507201512 20 296 11.3 19.3 0.00 0.00 0.00 13 1017.7
20260507200011 19 298 9.7 20.9 0.00 0.00 0.00 13 1017.8
20260507194506 19 321 8.0 24.1 0.00 0.00 0.00 13 1018.0
20260507193003 18 321 8.0 19.3 0.00 0.00 0.00 10 1018.2
20260507191600 18 341 11.3 22.5 0.00 0.00 0.00 17 1018.3
20260507184557 17 281 16.1 22.5 0.00 0.00 0.00 16 1018.5
20260507183051 16 296 16.1 24.1 0.00 0.00 0.00 16 1018.7
20260507181547 16 321 16.1 25.7 0.00 0.00 0.00 18 1018.9
20260507180047 15 320 8.0 29.0 0.00 0.00 0.00 22 1019.0
20260507174543 15 336 17.7 35.4 0.00 0.00 0.00 23 1019.2
20260507173043 14 360 14.5 30.6 0.00 0.00 0.00 23 1019.4
20260507171536 13 351 12.9 30.6 0.00 0.00 0.00 27 1019.8
20260507170028 12 311 17.7 29.0 0.00 0.00 0.00 29 1019.8
20260507164524 11 318 14.5 27.4 0.00 0.00 0.00 37 1019.9
20260507163018 10 330 16.1 25.7 0.00 0.00 0.00 42 1020.1
20260507161521 10 338 14.5 22.5 0.00 0.00 0.00 45 1020.3
20260507160010 8 324 14.5 32.2 0.00 0.00 0.00 47 1020.4
20260507154507 7 295 16.1 25.7 0.00 0.00 0.00 50 1020.6
20260507153002 7 319 16.1 25.7 0.00 0.00 0.00 55 1020.6
20260507151558 6 321 17.7 25.7 0.00 0.00 0.00 58 1020.6
20260507150054 6 348 14.5 25.7 0.00 0.00 0.00 63 1020.6
20260507144613 5 329 11.3 24.1 0.00 0.00 0.00 67 1020.8
20260507143048 4 336 11.3 22.5 0.00 0.00 0.00 72 1020.9
20260507141543 3 13 12.9 20.9 0.00 0.00 0.00 77 1020.9
20260507140036 3 344 12.9 22.5 0.00 0.00 0.00 78 1021.1
20260507134511 2 344 8.0 16.1 0.00 0.00 0.00 81 1021.1
20260507133004 2 348 9.7 19.3 0.00 0.00 0.00 83 1021.0
20260507131600 1 321 6.4 14.5 0.00 0.00 0.00 87 1021.2
20260507130105 0 15 3.2 6.4 0.00 0.00 0.00 88 1021.2
20260507124551 0 101 1.6 3.2 0.00 0.00 0.00 89 1021.2
20260507123049 0 101 1.6 3.2 0.00 0.00 0.00 90 1021.2
20260507121545 0 101 1.6 4.8 0.00 0.00 0.00 90 1021.1
20260507120040 0 101 1.6 4.8 0.00 0.00 0.00 89 1021.1
20260507114538 0 101 0.0 3.2 0.00 0.00 0.00 89 1021.3
20260507113035 0 101 0.0 0.0 0.00 0.00 0.00 88 1021.2
20260507111541 0 101 0.0 4.8 0.00 0.00 0.00 88 1021.1
20260507110033 0 101 4.8 9.7 0.00 0.00 0.00 88 1021.1
20260507104531 0 124 3.2 9.7 0.00 0.00 0.00 86 1021.2
20260507103032 0 124 3.2 6.4 0.00 0.00 0.00 85 1021.2
20260507101537 0 124 3.2 11.3 0.00 0.00 0.00 85 1021.2
20260507100034 0 106 4.8 9.7 0.00 0.00 0.00 84 1021.1
20260507094537 0 120 4.8 12.9 0.00 0.00 0.00 84 1021.1
20260507093022 0 157 4.8 12.9 0.00 0.00 0.00 82 1021.2
20260507091526 1 148 1.6 3.2 0.00 0.00 0.00 80 1021.1
20260507090018 1 148 0.0 8.0 0.00 0.00 0.00 78 1021.1
20260507084517 2 148 4.8 9.7 0.00 0.00 0.00 77 1021.0
20260507083007 2 83 3.2 6.4 0.00 0.00 0.00 76 1020.9
20260507081513 2 83 0.0 1.6 0.00 0.00 0.00 75 1020.8
20260507080001 3 83 3.2 4.8 0.00 0.00 0.00 74 1020.8
20260507074558 3 83 0.0 3.2 0.00 0.00 0.00 73 1020.7
20260507073101 3 83 0.0 6.4 0.00 0.00 0.00 71 1020.6
20260507071557 4 83 1.6 4.8 0.00 0.00 0.00 70 1020.5
20260507070059 3 83 3.2 12.9 0.00 0.00 0.00 72 1020.6
20260507064551 4 73 3.2 12.9 0.00 0.00 0.00 71 1020.4
20260507063050 4 346 3.2 9.7 0.00 0.00 0.00 71 1019.9
20260507061547 4 346 4.8 12.9 0.00 0.00 0.00 70 1019.9
20260507060051 5 350 4.8 16.1 0.00 0.00 0.00 68 1019.7
20260507054548 5 348 3.2 12.9 0.00 0.03 0.00 66 1019.6
20260507053042 5 5 9.7 17.7 0.00 0.03 0.00 66 1019.5
20260507051540 5 355 3.2 9.7 0.00 0.03 0.00 65 1019.4
20260507050038 6 360 3.2 9.7 0.00 0.03 0.00 64 1019.4
20260507044549 6 355 6.4 14.5 0.00 0.15 0.00 62 1019.2
20260507043035 6 346 8.0 17.7 0.00 0.15 0.00 61 1019.0
20260507041533 6 345 11.3 17.7 0.00 0.15 0.00 58 1018.9
20260507040034 7 323 8.0 14.5 0.00 0.15 0.00 53 1018.6
20260507034535 7 329 9.7 20.9 0.00 0.18 0.00 50 1018.6
20260507033027 8 265 0.0 1.6 0.00 0.18 0.00 48 1018.3
20260507031525 8 265 0.0 3.2 0.00 0.18 0.00 46 1018.0
20260507030023 9 265 0.0 3.2 0.00 0.18 0.00 43 1017.8
20260507024521 10 265 0.0 3.2 0.00 0.33 0.00 41 1017.6
20260507023020 10 265 1.6 4.8 0.00 0.33 0.00 39 1017.4
20260507021520 11 265 4.8 9.7 0.00 0.33 0.00 37 1017.2
20260507020016 11 277 8.0 17.7 0.00 0.33 0.00 36 1017.1